| time (UTC) | temp F | wind direction | speed knots | gust knots | rain 1hr in | rain 24hr in | rain mn in | humidity % | barometer mb |
| 20260905061529 | 68 | 289 | 0.0 | 0.0 | 0.00 | 0.00 | 0.00 | 87 | 1013.0 |
| 20260905060026 | 68 | 289 | 0.0 | 0.0 | 0.00 | 0.00 | 0.00 | 87 | 1013.0 |
| 20260905054539 | 69 | 289 | 0.0 | 0.0 | 0.00 | 0.00 | 0.00 | 86 | 1012.9 |
| 20260905053025 | 70 | 289 | 0.0 | 0.0 | 0.00 | 0.00 | 0.00 | 86 | 1012.9 |
| 20260905051525 | 70 | 289 | 0.0 | 0.0 | 0.00 | 0.00 | 0.00 | 86 | 1012.9 |
| 20260905050025 | 70 | 289 | 0.0 | 3.5 | 0.00 | 0.00 | 0.00 | 86 | 1012.9 |
| 20260905044523 | 71 | 289 | 2.6 | 6.1 | 0.00 | 0.00 | 0.00 | 86 | 1012.7 |
| 20260905043027 | 71 | 282 | 0.9 | 6.1 | 0.00 | 0.00 | 0.00 | 85 | 1012.7 |
| 20260905041522 | 71 | 283 | 3.5 | 7.8 | 0.00 | 0.00 | 0.00 | 85 | 1012.5 |
| 20260905040023 | 71 | 269 | 5.2 | 7.8 | 0.00 | 0.00 | 0.00 | 85 | 1012.3 |
| 20260905034521 | 72 | 264 | 5.2 | 7.0 | 0.00 | 0.00 | 0.00 | 85 | 1012.2 |
| 20260905033020 | 72 | 276 | 2.6 | 8.7 | 0.00 | 0.00 | 0.00 | 86 | 1012.0 |
| 20260905031520 | 72 | 246 | 4.3 | 7.8 | 0.00 | 0.00 | 0.00 | 85 | 1011.9 |
| 20260905030019 | 72 | 263 | 5.2 | 8.7 | 0.00 | 0.00 | 0.00 | 85 | 1011.7 |
| 20260905024518 | 72 | 283 | 3.5 | 8.7 | 0.00 | 0.00 | 0.00 | 84 | 1011.6 |
| 20260905023020 | 72 | 277 | 3.5 | 7.0 | 0.00 | 0.00 | 0.00 | 84 | 1011.6 |
| 20260905021516 | 72 | 231 | 1.7 | 5.2 | 0.00 | 0.00 | 0.00 | 83 | 1011.7 |
| 20260905020015 | 73 | 222 | 0.9 | 7.0 | 0.00 | 0.00 | 0.00 | 81 | 1011.9 |
| 20260905014513 | 73 | 265 | 0.0 | 5.2 | 0.00 | 0.00 | 0.00 | 79 | 1011.9 |
| 20260905013013 | 74 | 259 | 2.6 | 7.0 | 0.00 | 0.00 | 0.00 | 78 | 1011.9 |
| 20260905011511 | 76 | 244 | 2.6 | 7.8 | 0.00 | 0.00 | 0.00 | 74 | 1011.9 |
| 20260905010012 | 76 | 272 | 2.6 | 7.0 | 0.00 | 0.00 | 0.00 | 73 | 1012.1 |
| 20260905004510 | 77 | 260 | 4.3 | 7.8 | 0.00 | 0.00 | 0.00 | 71 | 1012.1 |
| 20260905003009 | 77 | 275 | 3.5 | 7.0 | 0.00 | 0.00 | 0.00 | 71 | 1012.2 |
| 20260905001509 | 78 | 256 | 2.6 | 6.1 | 0.00 | 0.00 | 0.00 | 70 | 1012.2 |
| 20260905000008 | 78 | 221 | 2.6 | 7.8 | 0.00 | 0.00 | 0.00 | 70 | 1012.3 |
| 20260904234507 | 78 | 254 | 3.5 | 9.6 | 0.00 | 0.00 | 0.00 | 70 | 1012.2 |
| 20260904233007 | 78 | 192 | 4.3 | 7.8 | 0.00 | 0.00 | 0.00 | 70 | 1012.2 |
| 20260904231507 | 78 | 205 | 5.2 | 9.6 | 0.00 | 0.00 | 0.00 | 70 | 1012.2 |
| 20260904230005 | 78 | 213 | 4.3 | 8.7 | 0.00 | 0.00 | 0.00 | 70 | 1012.3 |
| 20260904224505 | 78 | 196 | 4.3 | 8.7 | 0.00 | 0.00 | 0.00 | 69 | 1012.4 |
| 20260904223004 | 79 | 223 | 4.3 | 8.7 | 0.00 | 0.00 | 0.00 | 68 | 1012.5 |
| 20260904221502 | 79 | 219 | 3.5 | 9.6 | 0.00 | 0.00 | 0.00 | 68 | 1012.5 |
| 20260904220003 | 78 | 250 | 3.5 | 8.7 | 0.00 | 0.00 | 0.00 | 70 | 1012.5 |
| 20260904214501 | 78 | 240 | 3.5 | 9.6 | 0.00 | 0.00 | 0.00 | 70 | 1012.5 |
| 20260904213001 | 78 | 244 | 2.6 | 8.7 | 0.00 | 0.00 | 0.00 | 70 | 1012.6 |
| 20260904211603 | 78 | 214 | 4.3 | 8.7 | 0.00 | 0.00 | 0.00 | 70 | 1012.7 |
| 20260904210105 | 78 | 218 | 5.2 | 8.7 | 0.00 | 0.00 | 0.00 | 71 | 1012.8 |
| 20260904204559 | 78 | 232 | 5.2 | 9.6 | 0.00 | 0.00 | 0.00 | 70 | 1012.8 |
| 20260904203058 | 78 | 165 | 3.5 | 10.4 | 0.00 | 0.00 | 0.00 | 71 | 1012.9 |
| 20260904201624 | 78 | 187 | 4.3 | 8.7 | 0.00 | 0.00 | 0.00 | 70 | 1013.0 |
| 20260904200100 | 78 | 182 | 5.2 | 10.4 | 0.00 | 0.00 | 0.00 | 70 | 1013.1 |
| 20260904194605 | 79 | 177 | 4.3 | 7.8 | 0.00 | 0.00 | 0.00 | 70 | 1013.2 |
| 20260904193053 | 78 | 190 | 3.5 | 7.8 | 0.00 | 0.00 | 0.00 | 70 | 1013.3 |
| 20260904191651 | 78 | 209 | 4.3 | 8.7 | 0.00 | 0.00 | 0.00 | 71 | 1013.6 |
| 20260904190049 | 78 | 244 | 3.5 | 8.7 | 0.00 | 0.00 | 0.00 | 71 | 1013.7 |
| 20260904184548 | 78 | 208 | 4.3 | 8.7 | 0.00 | 0.00 | 0.00 | 69 | 1013.9 |
| 20260904183047 | 78 | 228 | 3.5 | 8.7 | 0.00 | 0.00 | 0.00 | 70 | 1013.9 |
| 20260904181546 | 77 | 180 | 5.2 | 8.7 | 0.00 | 0.00 | 0.00 | 70 | 1014.0 |
| 20260904180047 | 77 | 184 | 5.2 | 8.7 | 0.00 | 0.00 | 0.00 | 69 | 1013.9 |
| 20260904174547 | 77 | 210 | 3.5 | 8.7 | 0.00 | 0.00 | 0.00 | 71 | 1014.1 |
| 20260904173056 | 77 | 175 | 5.2 | 8.7 | 0.00 | 0.00 | 0.00 | 70 | 1014.0 |
| 20260904171543 | 76 | 194 | 4.3 | 7.8 | 0.00 | 0.00 | 0.00 | 71 | 1013.9 |
| 20260904170039 | 76 | 239 | 3.5 | 7.8 | 0.00 | 0.00 | 0.00 | 73 | 1013.8 |
| 20260904164537 | 76 | 206 | 2.6 | 5.2 | 0.00 | 0.00 | 0.00 | 71 | 1013.5 |
| 20260904163034 | 76 | 205 | 1.7 | 5.2 | 0.00 | 0.00 | 0.00 | 72 | 1013.4 |
| 20260904161535 | 76 | 157 | 0.9 | 6.1 | 0.00 | 0.00 | 0.00 | 71 | 1013.3 |
| 20260904160032 | 76 | 150 | 0.0 | 2.6 | 0.00 | 0.00 | 0.00 | 72 | 1013.2 |
| 20260904154525 | 75 | 155 | 0.0 | 3.5 | 0.00 | 0.00 | 0.00 | 74 | 1013.1 |
| 20260904153021 | 73 | 145 | 0.9 | 5.2 | 0.00 | 0.00 | 0.00 | 76 | 1013.2 |
| 20260904151518 | 73 | 117 | 0.0 | 3.5 | 0.00 | 0.00 | 0.00 | 77 | 1013.1 |
| 20260904150026 | 70 | 110 | 0.9 | 3.5 | 0.00 | 0.00 | 0.00 | 81 | 1013.0 |
| 20260904144510 | 68 | 105 | 1.7 | 5.2 | 0.00 | 0.00 | 0.00 | 85 | 1013.0 |
| 20260904143006 | 66 | 107 | 0.9 | 5.2 | 0.00 | 0.00 | 0.00 | 90 | 1013.0 |
| 20260904141502 | 65 | 98 | 0.9 | 3.5 | 0.00 | 0.00 | 0.00 | 90 | 1012.8 |
| 20260904140105 | 65 | 269 | 0.0 | 2.6 | 0.00 | 0.00 | 0.00 | 91 | 1012.6 |
| 20260904134613 | 65 | 269 | 0.0 | 0.0 | 0.00 | 0.00 | 0.00 | 91 | 1012.5 |
| 20260904133058 | 64 | 269 | 0.0 | 0.0 | 0.00 | 0.00 | 0.00 | 91 | 1012.4 |
| 20260904131558 | 65 | 269 | 0.0 | 0.0 | 0.00 | 0.00 | 0.00 | 91 | 1012.4 |
| 20260904130056 | 65 | 269 | 0.0 | 0.0 | 0.00 | 0.00 | 0.00 | 91 | 1012.3 |
| 20260904124555 | 65 | 269 | 0.0 | 0.0 | 0.00 | 0.00 | 0.00 | 91 | 1012.3 |
| 20260904123054 | 65 | 269 | 0.0 | 0.0 | 0.00 | 0.00 | 0.00 | 91 | 1012.2 |
| 20260904121554 | 65 | 269 | 0.0 | 0.0 | 0.00 | 0.00 | 0.00 | 91 | 1012.1 |
| 20260904120104 | 65 | 269 | 0.0 | 0.0 | 0.00 | 0.00 | 0.00 | 91 | 1012.0 |
| 20260904114554 | 65 | 269 | 0.0 | 0.0 | 0.00 | 0.00 | 0.00 | 91 | 1012.1 |
| 20260904113052 | 65 | 269 | 0.0 | 0.0 | 0.00 | 0.00 | 0.00 | 91 | 1012.1 |
| 20260904111551 | 65 | 269 | 0.0 | 0.0 | 0.00 | 0.00 | 0.00 | 91 | 1012.0 |
| 20260904110051 | 65 | 269 | 0.0 | 2.6 | 0.00 | 0.00 | 0.00 | 92 | 1012.1 |
| 20260904104550 | 65 | 269 | 0.0 | 1.7 | 0.00 | 0.00 | 0.00 | 91 | 1012.1 |
| 20260904103048 | 65 | 269 | 0.0 | 0.0 | 0.00 | 0.00 | 0.00 | 91 | 1011.9 |
| 20260904101547 | 65 | 269 | 0.0 | 0.0 | 0.00 | 0.00 | 0.00 | 91 | 1011.9 |
| 20260904100050 | 65 | 269 | 0.0 | 0.0 | 0.00 | 0.00 | 0.00 | 91 | 1011.9 |
| 20260904094551 | 65 | 269 | 0.0 | 0.0 | 0.00 | 0.00 | 0.00 | 91 | 1012.0 |
| 20260904093047 | 65 | 269 | 0.0 | 3.5 | 0.00 | 0.00 | 0.00 | 92 | 1012.0 |
| 20260904091544 | 65 | 269 | 0.0 | 0.0 | 0.00 | 0.00 | 0.00 | 92 | 1011.9 |
| 20260904090044 | 65 | 269 | 0.0 | 0.0 | 0.00 | 0.00 | 0.00 | 92 | 1012.0 |
| 20260904084543 | 65 | 269 | 0.0 | 0.0 | 0.00 | 0.00 | 0.00 | 92 | 1012.0 |
| 20260904083046 | 65 | 269 | 0.0 | 0.0 | 0.00 | 0.00 | 0.00 | 92 | 1012.2 |
| 20260904081541 | 65 | 269 | 0.0 | 0.0 | 0.00 | 0.00 | 0.00 | 91 | 1012.2 |
| 20260904080041 | 65 | 269 | 0.0 | 0.0 | 0.00 | 0.00 | 0.00 | 91 | 1012.2 |
| 20260904074539 | 65 | 269 | 0.0 | 0.0 | 0.00 | 0.00 | 0.00 | 90 | 1012.2 |
| 20260904073038 | 65 | 269 | 0.0 | 0.0 | 0.00 | 0.00 | 0.00 | 90 | 1012.2 |
| 20260904071536 | 65 | 269 | 0.0 | 0.0 | 0.00 | 0.00 | 0.00 | 89 | 1012.1 |
| 20260904070034 | 66 | 269 | 0.0 | 0.0 | 0.00 | 0.00 | 0.00 | 89 | 1012.0 |
| 20260904064535 | 66 | 269 | 0.0 | 0.0 | 0.00 | 0.00 | 0.00 | 87 | 1012.1 |
| 20260904063036 | 66 | 269 | 0.0 | 0.0 | 0.00 | 0.00 | 0.00 | 86 | 1012.0 |